Year,Month,Day,Hour,Minute,Value (Times are PST for temperature in C)
2018,08,09,00,00,25.70
2018,08,09,00,01,25.70
2018,08,09,00,02,25.70
2018,08,09,00,03,25.70
2018,08,09,00,04,25.70
2018,08,09,00,05,25.70
2018,08,09,00,06,25.60
2018,08,09,00,07,25.60
2018,08,09,00,08,25.50
2018,08,09,00,09,25.50
2018,08,09,00,10,25.50
2018,08,09,00,11,25.40
2018,08,09,00,12,25.40
2018,08,09,00,13,25.40
2018,08,09,00,14,25.40
2018,08,09,00,15,25.30
2018,08,09,00,16,25.30
2018,08,09,00,17,25.30
2018,08,09,00,18,25.30
2018,08,09,00,19,25.30
2018,08,09,00,20,25.20
2018,08,09,00,21,25.20
2018,08,09,00,22,25.10
2018,08,09,00,23,25.10
2018,08,09,00,24,25.00
2018,08,09,00,25,24.90
2018,08,09,00,26,24.90
2018,08,09,00,27,24.90
2018,08,09,00,28,24.80
2018,08,09,00,29,24.80
2018,08,09,00,30,24.80
2018,08,09,00,31,24.80
2018,08,09,00,32,24.80
2018,08,09,00,33,24.80
2018,08,09,00,34,24.80
2018,08,09,00,35,24.80
2018,08,09,00,36,24.80
2018,08,09,00,37,24.70
2018,08,09,00,38,24.70
2018,08,09,00,39,24.70
2018,08,09,00,40,24.70
2018,08,09,00,41,24.70
2018,08,09,00,42,24.70
2018,08,09,00,43,24.70
2018,08,09,00,44,24.70
2018,08,09,00,45,24.70
2018,08,09,00,46,24.70
2018,08,09,00,47,24.70
2018,08,09,00,48,24.70
2018,08,09,00,49,24.70
2018,08,09,00,50,24.80
2018,08,09,00,51,24.80
2018,08,09,00,52,24.80
2018,08,09,00,53,24.80
2018,08,09,00,54,24.90
2018,08,09,00,55,24.90
2018,08,09,00,56,24.90
2018,08,09,00,57,24.90
2018,08,09,00,58,24.90
2018,08,09,00,59,24.90
2018,08,09,01,00,24.80
2018,08,09,01,01,24.80
2018,08,09,01,02,24.80
2018,08,09,01,03,24.70
2018,08,09,01,04,24.60
2018,08,09,01,05,24.60
2018,08,09,01,06,24.50
2018,08,09,01,07,24.50
2018,08,09,01,08,24.40
2018,08,09,01,09,24.40
2018,08,09,01,10,24.40
2018,08,09,01,11,24.30
2018,08,09,01,12,24.30
2018,08,09,01,13,24.30
2018,08,09,01,14,24.30
2018,08,09,01,15,24.30
2018,08,09,01,16,24.20
2018,08,09,01,17,24.20
2018,08,09,01,18,24.30
2018,08,09,01,19,24.20
2018,08,09,01,20,24.30
2018,08,09,01,21,24.30
2018,08,09,01,22,24.30
2018,08,09,01,23,24.30
2018,08,09,01,24,24.30
2018,08,09,01,25,24.30
2018,08,09,01,26,24.30
2018,08,09,01,27,24.30
2018,08,09,01,28,24.30
2018,08,09,01,29,24.20
2018,08,09,01,30,24.20
2018,08,09,01,31,24.20
2018,08,09,01,32,24.10
2018,08,09,01,33,24.10
2018,08,09,01,34,24.10
2018,08,09,01,35,24.10
2018,08,09,01,36,24.00
2018,08,09,01,37,24.00
2018,08,09,01,38,24.00
2018,08,09,01,39,24.00
2018,08,09,01,40,24.10
2018,08,09,01,41,24.10
2018,08,09,01,42,24.10
2018,08,09,01,43,24.20
2018,08,09,01,44,24.20
2018,08,09,01,45,24.20
2018,08,09,01,46,24.20
2018,08,09,01,47,24.20
2018,08,09,01,48,24.20
2018,08,09,01,49,24.20
2018,08,09,01,50,24.20
2018,08,09,01,51,24.10
2018,08,09,01,52,24.10
2018,08,09,01,53,24.10
2018,08,09,01,54,24.10
2018,08,09,01,55,24.10
2018,08,09,01,56,24.10
2018,08,09,01,57,24.10
2018,08,09,01,58,24.10
2018,08,09,01,59,24.00
2018,08,09,02,00,24.00
2018,08,09,02,01,24.00
2018,08,09,02,02,23.90
2018,08,09,02,03,23.80
2018,08,09,02,04,23.80
2018,08,09,02,05,23.70
2018,08,09,02,06,23.70
2018,08,09,02,07,23.70
2018,08,09,02,08,23.60
2018,08,09,02,09,23.60
2018,08,09,02,10,23.60
2018,08,09,02,11,23.60
2018,08,09,02,12,23.60
2018,08,09,02,13,23.60
2018,08,09,02,14,23.60
2018,08,09,02,15,23.60
2018,08,09,02,16,23.60
2018,08,09,02,17,23.60
2018,08,09,02,18,23.70
2018,08,09,02,19,23.70
2018,08,09,02,20,23.70
2018,08,09,02,21,23.70
2018,08,09,02,22,23.80
2018,08,09,02,23,23.80
2018,08,09,02,24,23.80
2018,08,09,02,25,23.80
2018,08,09,02,26,23.80
2018,08,09,02,27,23.80
2018,08,09,02,28,23.80
2018,08,09,02,29,23.80
2018,08,09,02,30,23.70
2018,08,09,02,31,23.70
2018,08,09,02,32,23.70
2018,08,09,02,33,23.70
2018,08,09,02,34,23.70
2018,08,09,02,35,23.70
2018,08,09,02,36,23.70
2018,08,09,02,37,23.70
2018,08,09,02,38,23.70
2018,08,09,02,39,23.70
2018,08,09,02,40,23.70
2018,08,09,02,41,23.80
2018,08,09,02,42,23.80
2018,08,09,02,43,23.80
2018,08,09,02,44,23.80
2018,08,09,02,45,23.80
2018,08,09,02,46,23.90
2018,08,09,02,47,23.90
2018,08,09,02,48,23.90
2018,08,09,02,49,23.90
2018,08,09,02,50,23.90
2018,08,09,02,51,23.90
2018,08,09,02,52,23.90
2018,08,09,02,53,24.00
2018,08,09,02,54,24.00
2018,08,09,02,55,24.00
2018,08,09,02,56,24.10
2018,08,09,02,57,24.10
2018,08,09,02,58,24.10
2018,08,09,02,59,24.10
2018,08,09,03,00,24.10
2018,08,09,03,01,24.10
2018,08,09,03,02,24.10
2018,08,09,03,03,24.10
2018,08,09,03,04,24.10
2018,08,09,03,05,24.10
2018,08,09,03,06,24.10
2018,08,09,03,07,24.10
2018,08,09,03,08,24.10
2018,08,09,03,09,24.00
2018,08,09,03,10,24.00
2018,08,09,03,11,24.00
2018,08,09,03,12,23.90
2018,08,09,03,13,23.90
2018,08,09,03,14,23.90
2018,08,09,03,15,23.90
2018,08,09,03,16,23.80
2018,08,09,03,17,23.80
2018,08,09,03,18,23.80
2018,08,09,03,19,23.70
2018,08,09,03,20,23.70
2018,08,09,03,21,23.70
2018,08,09,03,22,23.60
2018,08,09,03,23,23.60
2018,08,09,03,24,23.60
2018,08,09,03,25,23.50
2018,08,09,03,26,23.50
2018,08,09,03,27,23.40
2018,08,09,03,28,23.40
2018,08,09,03,29,23.40
2018,08,09,03,30,23.30
2018,08,09,03,31,23.30
2018,08,09,03,32,23.30
2018,08,09,03,33,23.30
2018,08,09,03,34,23.30
2018,08,09,03,35,23.20
2018,08,09,03,36,23.20
2018,08,09,03,37,23.20
2018,08,09,03,38,23.20
2018,08,09,03,39,23.20
2018,08,09,03,40,23.20
2018,08,09,03,41,23.20
2018,08,09,03,42,23.20
2018,08,09,03,43,23.20
2018,08,09,03,44,23.20
2018,08,09,03,45,23.30
2018,08,09,03,46,23.30
2018,08,09,03,47,23.30
2018,08,09,03,48,23.30
2018,08,09,03,49,23.30
2018,08,09,03,50,23.30
2018,08,09,03,51,23.30
2018,08,09,03,52,23.30
2018,08,09,03,53,23.40
2018,08,09,03,54,23.40
2018,08,09,03,55,23.40
2018,08,09,03,56,23.40
2018,08,09,03,57,23.40
2018,08,09,03,58,23.40
2018,08,09,03,59,23.40
2018,08,09,04,00,23.40
2018,08,09,04,01,23.30
2018,08,09,04,02,23.30
2018,08,09,04,03,23.30
2018,08,09,04,04,23.30
2018,08,09,04,05,23.20
2018,08,09,04,06,23.20
2018,08,09,04,07,23.20
2018,08,09,04,08,23.20
2018,08,09,04,09,23.20
2018,08,09,04,10,23.20
2018,08,09,04,11,23.20
2018,08,09,04,12,23.20
2018,08,09,04,13,23.20
2018,08,09,04,14,23.20
2018,08,09,04,15,23.20
2018,08,09,04,16,23.20
2018,08,09,04,17,23.20
2018,08,09,04,18,23.20
2018,08,09,04,19,23.30
2018,08,09,04,20,23.30
2018,08,09,04,21,23.30
2018,08,09,04,22,23.30
2018,08,09,04,23,23.40
2018,08,09,04,24,23.40
2018,08,09,04,25,23.40
2018,08,09,04,26,23.40
2018,08,09,04,27,23.30
2018,08,09,04,28,23.30
2018,08,09,04,29,23.20
2018,08,09,04,30,23.10
2018,08,09,04,31,23.00
2018,08,09,04,32,22.80
2018,08,09,04,33,22.60
2018,08,09,04,34,22.40
2018,08,09,04,35,22.20
2018,08,09,04,36,22.00
2018,08,09,04,37,21.90
2018,08,09,04,38,21.60
2018,08,09,04,39,21.40
2018,08,09,04,40,21.30
2018,08,09,04,41,21.10
2018,08,09,04,42,20.90
2018,08,09,04,43,20.80
2018,08,09,04,44,20.70
2018,08,09,04,45,20.60
2018,08,09,04,46,20.50
2018,08,09,04,47,20.40
2018,08,09,04,48,20.30
2018,08,09,04,49,20.30
2018,08,09,04,50,20.20
2018,08,09,04,51,20.10
2018,08,09,04,52,20.10
2018,08,09,04,53,20.10
2018,08,09,04,54,20.10
2018,08,09,04,55,20.20
2018,08,09,04,56,20.20
2018,08,09,04,57,20.20
2018,08,09,04,58,20.20
2018,08,09,04,59,20.30
2018,08,09,05,00,20.30
2018,08,09,05,01,20.30
2018,08,09,05,02,20.40
2018,08,09,05,03,20.40
2018,08,09,05,04,20.40
2018,08,09,05,05,20.30
2018,08,09,05,06,20.30
2018,08,09,05,07,20.30
2018,08,09,05,08,20.20
2018,08,09,05,09,20.20
2018,08,09,05,10,20.10
2018,08,09,05,11,20.10
2018,08,09,05,12,20.00
2018,08,09,05,13,20.00
2018,08,09,05,14,19.90
2018,08,09,05,15,19.80
2018,08,09,05,16,19.80
2018,08,09,05,17,19.70
2018,08,09,05,18,19.60
2018,08,09,05,19,19.50
2018,08,09,05,20,19.40
2018,08,09,05,21,19.30
2018,08,09,05,22,19.20
2018,08,09,05,23,19.10
2018,08,09,05,24,19.00
2018,08,09,05,25,18.90
2018,08,09,05,26,18.80
2018,08,09,05,27,18.60
2018,08,09,05,28,18.50
2018,08,09,05,29,18.40
2018,08,09,05,30,18.30
2018,08,09,05,31,18.20
2018,08,09,05,32,18.20
2018,08,09,05,33,18.10
2018,08,09,05,34,18.00
2018,08,09,05,35,18.00
2018,08,09,05,36,17.90
2018,08,09,05,37,17.90
2018,08,09,05,38,17.80
2018,08,09,05,39,17.80
2018,08,09,05,40,17.70
2018,08,09,05,41,17.70
2018,08,09,05,42,17.70
2018,08,09,05,43,17.70
2018,08,09,05,44,17.70
2018,08,09,05,45,17.60
2018,08,09,05,46,17.60
2018,08,09,05,47,17.60
2018,08,09,05,48,17.60
2018,08,09,05,49,17.50
2018,08,09,05,52,17.40
2018,08,09,05,53,17.30
2018,08,09,05,54,17.30
2018,08,09,05,55,17.30
2018,08,09,05,56,17.20
2018,08,09,05,57,17.20
2018,08,09,05,58,17.10
2018,08,09,05,59,17.10
2018,08,09,06,00,17.10
2018,08,09,06,01,17.00
2018,08,09,06,02,17.00
2018,08,09,06,03,16.90
2018,08,09,06,04,16.90
2018,08,09,06,05,16.90
2018,08,09,06,06,16.80
2018,08,09,06,07,16.80
2018,08,09,06,08,16.80
2018,08,09,06,09,16.70
2018,08,09,06,10,16.70
2018,08,09,06,11,16.70
2018,08,09,06,12,16.60
2018,08,09,06,13,16.60
2018,08,09,06,14,16.60
2018,08,09,06,15,16.60
2018,08,09,06,16,16.50
2018,08,09,06,17,16.50
2018,08,09,06,18,16.50
2018,08,09,06,19,16.50
2018,08,09,06,20,16.50
2018,08,09,06,21,16.50
2018,08,09,06,22,16.50
2018,08,09,06,23,16.60
2018,08,09,06,24,16.60
2018,08,09,06,25,16.60
2018,08,09,06,26,16.60
2018,08,09,06,27,16.60
2018,08,09,06,28,16.70
2018,08,09,06,29,16.70
2018,08,09,06,30,16.70
2018,08,09,06,31,16.70
2018,08,09,06,32,16.70
2018,08,09,06,33,16.70
2018,08,09,06,34,16.70
2018,08,09,06,35,16.70
2018,08,09,06,36,16.80
2018,08,09,06,37,16.80
2018,08,09,06,38,16.80
2018,08,09,06,39,16.80
2018,08,09,06,40,16.80
2018,08,09,06,41,16.80
2018,08,09,06,42,16.80
2018,08,09,06,43,16.80
2018,08,09,06,44,16.80
2018,08,09,06,45,16.80
2018,08,09,06,46,16.80
2018,08,09,06,47,16.90
2018,08,09,06,48,16.90
2018,08,09,06,49,16.90
2018,08,09,06,50,16.90
2018,08,09,06,51,16.90
2018,08,09,06,52,16.90
2018,08,09,06,53,16.90
2018,08,09,06,54,16.90
2018,08,09,06,55,16.90
2018,08,09,06,56,16.90
2018,08,09,06,57,17.00
2018,08,09,06,58,17.00
2018,08,09,06,59,17.00
2018,08,09,07,00,17.00
2018,08,09,07,01,17.00
2018,08,09,07,02,17.00
2018,08,09,07,03,17.00
2018,08,09,07,04,17.10
2018,08,09,07,05,17.10
2018,08,09,07,06,17.10
2018,08,09,07,07,17.10
2018,08,09,07,08,17.10
2018,08,09,07,09,17.10
2018,08,09,07,10,17.20
2018,08,09,07,11,17.20
2018,08,09,07,12,17.20
2018,08,09,07,13,17.20
2018,08,09,07,14,17.30
2018,08,09,07,15,17.30
2018,08,09,07,16,17.30
2018,08,09,07,17,17.40
2018,08,09,07,18,17.40
2018,08,09,07,19,17.40
2018,08,09,07,20,17.40
2018,08,09,07,21,17.40
2018,08,09,07,22,17.50
2018,08,09,07,23,17.50
2018,08,09,07,24,17.50
2018,08,09,07,25,17.60
2018,08,09,07,26,17.60
2018,08,09,07,27,17.60
2018,08,09,07,28,17.60
2018,08,09,07,29,17.70
2018,08,09,07,30,17.70
2018,08,09,07,31,17.70
2018,08,09,07,32,17.70
2018,08,09,07,33,17.80
2018,08,09,07,34,17.80
2018,08,09,07,35,17.80
2018,08,09,07,36,17.80
2018,08,09,07,37,17.80
2018,08,09,07,38,17.90
2018,08,09,07,39,17.90
2018,08,09,07,40,17.90
2018,08,09,07,41,17.90
2018,08,09,07,42,17.90
2018,08,09,07,43,17.90
2018,08,09,07,44,17.90
2018,08,09,07,45,17.90
2018,08,09,07,46,17.90
2018,08,09,07,47,17.90
2018,08,09,07,48,17.80
2018,08,09,07,49,17.80
2018,08,09,07,50,17.80
2018,08,09,07,51,17.80
2018,08,09,07,52,17.80
2018,08,09,07,53,17.80
2018,08,09,07,54,17.90
2018,08,09,07,55,17.90
2018,08,09,07,56,17.90
2018,08,09,07,57,17.90
2018,08,09,07,58,18.00
2018,08,09,07,59,18.00
2018,08,09,08,00,18.10
2018,08,09,08,01,18.20
2018,08,09,08,02,18.20
2018,08,09,08,03,18.30
2018,08,09,08,04,18.40
2018,08,09,08,05,18.40
2018,08,09,08,06,18.40
2018,08,09,08,07,18.50
2018,08,09,08,08,18.50
2018,08,09,08,09,18.60
2018,08,09,08,10,18.60
2018,08,09,08,11,18.60
2018,08,09,08,12,18.60
2018,08,09,08,13,18.60
2018,08,09,08,14,18.60
2018,08,09,08,15,18.60
2018,08,09,08,16,18.60
2018,08,09,08,17,18.60
2018,08,09,08,18,18.60
2018,08,09,08,19,18.60
2018,08,09,08,20,18.60
2018,08,09,08,21,18.60
2018,08,09,08,22,18.60
2018,08,09,08,23,18.70
2018,08,09,08,24,18.70
2018,08,09,08,25,18.80
2018,08,09,08,26,18.80
2018,08,09,08,27,18.80
2018,08,09,08,28,18.90
2018,08,09,08,29,18.90
2018,08,09,08,30,18.90
2018,08,09,08,31,19.00
2018,08,09,08,32,19.00
2018,08,09,08,33,19.10
2018,08,09,08,34,19.10
2018,08,09,08,35,19.20
2018,08,09,08,36,19.20
2018,08,09,08,37,19.30
2018,08,09,08,38,19.30
2018,08,09,08,39,19.40
2018,08,09,08,40,19.40
2018,08,09,08,41,19.50
2018,08,09,08,42,19.60
2018,08,09,08,43,19.60
2018,08,09,08,44,19.70
2018,08,09,08,45,19.70
2018,08,09,08,46,19.80
2018,08,09,08,47,19.80
2018,08,09,08,48,19.90
2018,08,09,08,49,19.90
2018,08,09,08,50,20.00
2018,08,09,08,51,20.10
2018,08,09,08,52,20.20
2018,08,09,08,53,20.20
2018,08,09,08,54,20.30
2018,08,09,08,55,20.30
2018,08,09,08,56,20.30
2018,08,09,08,57,20.30
2018,08,09,08,58,20.40
2018,08,09,08,59,20.40
2018,08,09,09,00,20.50
2018,08,09,09,01,20.50
2018,08,09,09,02,20.60
2018,08,09,09,03,20.60
2018,08,09,09,04,20.70
2018,08,09,09,05,20.70
2018,08,09,09,06,20.70
2018,08,09,09,07,20.70
2018,08,09,09,08,20.60
2018,08,09,09,09,20.60
2018,08,09,09,10,20.60
2018,08,09,09,11,20.60
2018,08,09,09,12,20.60
2018,08,09,09,13,20.70
2018,08,09,09,14,20.70
2018,08,09,09,15,20.80
2018,08,09,09,16,20.80
2018,08,09,09,17,20.90
2018,08,09,09,18,21.00
2018,08,09,09,19,21.10
2018,08,09,09,20,21.20
2018,08,09,09,21,21.20
2018,08,09,09,22,21.20
2018,08,09,09,23,21.20
2018,08,09,09,24,21.30
2018,08,09,09,25,21.30
2018,08,09,09,26,21.30
2018,08,09,09,27,21.40
2018,08,09,09,28,21.40
2018,08,09,09,29,21.50
2018,08,09,09,30,21.60
2018,08,09,09,31,21.60
2018,08,09,09,32,21.70
2018,08,09,09,33,21.80
2018,08,09,09,34,21.90
2018,08,09,09,35,22.00
2018,08,09,09,36,22.00
2018,08,09,09,37,22.10
2018,08,09,09,38,22.10
2018,08,09,09,39,22.10
2018,08,09,09,40,22.10
2018,08,09,09,41,22.10
2018,08,09,09,42,22.10
2018,08,09,09,43,22.10
2018,08,09,09,44,22.10
2018,08,09,09,45,22.10
2018,08,09,09,46,22.10
2018,08,09,09,47,22.10
2018,08,09,09,48,22.10
2018,08,09,09,49,22.10
2018,08,09,09,50,22.10
2018,08,09,09,51,22.00
2018,08,09,09,52,21.90
2018,08,09,09,53,21.80
2018,08,09,09,54,21.70
2018,08,09,09,55,21.50
2018,08,09,09,56,21.40
2018,08,09,09,57,21.30
2018,08,09,09,58,21.20
2018,08,09,09,59,21.20
2018,08,09,10,00,21.10
2018,08,09,10,01,21.10
2018,08,09,10,02,21.10
2018,08,09,10,03,21.10
2018,08,09,10,04,21.00
2018,08,09,10,05,21.10
2018,08,09,10,06,21.10
2018,08,09,10,07,21.20
2018,08,09,10,08,21.30
2018,08,09,10,09,21.30
2018,08,09,10,10,21.30
2018,08,09,10,11,21.30
2018,08,09,10,12,21.20
2018,08,09,10,13,21.20
2018,08,09,10,14,21.20
2018,08,09,10,15,21.20
2018,08,09,10,16,21.10
2018,08,09,10,17,21.20
2018,08,09,10,18,21.20
2018,08,09,10,19,21.30
2018,08,09,10,20,21.40
2018,08,09,10,21,21.50
2018,08,09,10,22,21.60
2018,08,09,10,23,21.80
2018,08,09,10,24,21.90
2018,08,09,10,25,22.10
2018,08,09,10,26,22.20
2018,08,09,10,27,22.30
2018,08,09,10,28,22.40
2018,08,09,10,29,22.50
2018,08,09,10,30,22.60
2018,08,09,10,31,22.70
2018,08,09,10,32,22.80
2018,08,09,10,33,22.90
2018,08,09,10,34,23.00
2018,08,09,10,35,23.10
2018,08,09,10,36,23.20
2018,08,09,10,37,23.30
2018,08,09,10,38,23.30
2018,08,09,10,39,23.40
2018,08,09,10,40,23.50
2018,08,09,10,41,23.60
2018,08,09,10,42,23.70
2018,08,09,10,43,23.80
2018,08,09,10,44,23.90
2018,08,09,10,45,24.00
2018,08,09,10,46,24.10
2018,08,09,10,47,24.10
2018,08,09,10,48,24.20
2018,08,09,10,49,24.30
2018,08,09,10,50,24.30
2018,08,09,10,51,24.40
2018,08,09,10,52,24.50
2018,08,09,10,53,24.60
2018,08,09,10,54,24.70
2018,08,09,10,55,24.80
2018,08,09,10,56,24.90
2018,08,09,10,57,24.90
2018,08,09,10,58,25.00
2018,08,09,10,59,25.00
2018,08,09,11,00,25.10
2018,08,09,11,01,25.20
2018,08,09,11,02,25.20
2018,08,09,11,03,25.30
2018,08,09,11,04,25.30
2018,08,09,11,05,25.30
2018,08,09,11,06,25.30
2018,08,09,11,07,25.30
2018,08,09,11,08,25.30
2018,08,09,11,09,25.30
2018,08,09,11,10,25.30
2018,08,09,11,11,25.30
2018,08,09,11,12,25.40
2018,08,09,11,13,25.30
2018,08,09,11,14,25.30
2018,08,09,11,15,25.20
2018,08,09,11,16,25.10
2018,08,09,11,17,25.00
2018,08,09,11,18,24.80
2018,08,09,11,19,24.70
2018,08,09,11,20,24.60
2018,08,09,11,21,24.50
2018,08,09,11,22,24.50
2018,08,09,11,23,24.60
2018,08,09,11,24,24.60
2018,08,09,11,25,24.70
2018,08,09,11,26,24.80
2018,08,09,11,27,24.90
2018,08,09,11,28,25.00
2018,08,09,11,29,25.10
2018,08,09,11,30,25.20
2018,08,09,11,31,25.20
2018,08,09,11,32,25.30
2018,08,09,11,33,25.40
2018,08,09,11,34,25.40
2018,08,09,11,35,25.50
2018,08,09,11,36,25.60
2018,08,09,11,37,25.60
2018,08,09,11,38,25.70
2018,08,09,11,39,25.70
2018,08,09,11,40,25.70
2018,08,09,11,41,25.60
2018,08,09,11,42,25.50
2018,08,09,11,43,25.40
2018,08,09,11,44,25.30
2018,08,09,11,45,25.30
2018,08,09,11,46,25.40
2018,08,09,11,47,25.40
2018,08,09,11,48,25.50
2018,08,09,11,49,25.60
2018,08,09,11,50,25.70
2018,08,09,11,51,25.80
2018,08,09,11,52,25.80
2018,08,09,11,53,25.80
2018,08,09,11,54,25.80
2018,08,09,11,55,25.80
2018,08,09,11,56,25.80
2018,08,09,11,57,25.90
2018,08,09,11,58,25.90
2018,08,09,11,59,25.90
2018,08,09,12,00,25.90
2018,08,09,12,01,25.90
2018,08,09,12,02,25.90
2018,08,09,12,03,25.90
2018,08,09,12,04,25.80
2018,08,09,12,05,25.70
2018,08,09,12,06,25.60
2018,08,09,12,07,25.50
2018,08,09,12,08,25.50
2018,08,09,12,09,25.40
2018,08,09,12,10,25.30
2018,08,09,12,11,25.20
2018,08,09,12,12,25.10
2018,08,09,12,13,25.00
2018,08,09,12,14,24.90
2018,08,09,12,15,24.90
2018,08,09,12,16,24.80
2018,08,09,12,17,24.80
2018,08,09,12,18,24.80
2018,08,09,12,19,24.80
2018,08,09,12,20,24.80
2018,08,09,12,21,24.80
2018,08,09,12,22,24.70
2018,08,09,12,23,24.70
2018,08,09,12,24,24.60
2018,08,09,12,25,24.60
2018,08,09,12,26,24.50
2018,08,09,12,27,24.50
2018,08,09,12,28,24.50
2018,08,09,12,29,24.50
2018,08,09,12,30,24.50
2018,08,09,12,31,24.50
2018,08,09,12,32,24.50
2018,08,09,12,33,24.40
2018,08,09,12,34,24.40
2018,08,09,12,35,24.40
2018,08,09,12,36,24.50
2018,08,09,12,37,24.50
2018,08,09,12,38,24.50
2018,08,09,12,39,24.60
2018,08,09,12,40,24.70
2018,08,09,12,41,24.80
2018,08,09,12,42,24.80
2018,08,09,12,43,24.90
2018,08,09,12,44,25.00
2018,08,09,12,45,25.10
2018,08,09,12,46,25.10
2018,08,09,12,47,25.20
2018,08,09,12,48,25.30
2018,08,09,12,49,25.40
2018,08,09,12,50,25.50
2018,08,09,12,51,25.60
2018,08,09,12,52,25.70
2018,08,09,12,53,25.80
2018,08,09,12,54,25.90
2018,08,09,12,55,25.90
2018,08,09,12,56,26.00
2018,08,09,12,57,26.10
2018,08,09,12,58,26.10
2018,08,09,12,59,26.20
2018,08,09,13,00,26.20
2018,08,09,13,01,26.30
2018,08,09,13,02,26.30
2018,08,09,13,03,26.40
2018,08,09,13,04,26.50
2018,08,09,13,05,26.50
2018,08,09,13,06,26.60
2018,08,09,13,07,26.70
2018,08,09,13,08,26.70
2018,08,09,13,09,26.70
2018,08,09,13,10,26.70
2018,08,09,13,11,26.70
2018,08,09,13,12,26.70
2018,08,09,13,13,26.70
2018,08,09,13,14,26.80
2018,08,09,13,15,26.80
2018,08,09,13,16,26.90
2018,08,09,13,17,27.00
2018,08,09,13,18,27.00
2018,08,09,13,19,27.10
2018,08,09,13,20,27.10
2018,08,09,13,21,27.10
2018,08,09,13,22,27.00
2018,08,09,13,23,27.00
2018,08,09,13,24,26.90
2018,08,09,13,25,26.80
2018,08,09,13,26,26.70
2018,08,09,13,27,26.60
2018,08,09,13,28,26.60
2018,08,09,13,29,26.50
2018,08,09,13,30,26.50
2018,08,09,13,31,26.40
2018,08,09,13,32,26.40
2018,08,09,13,33,26.40
2018,08,09,13,34,26.30
2018,08,09,13,35,26.30
2018,08,09,13,36,26.20
2018,08,09,13,37,26.20
2018,08,09,13,38,26.20
2018,08,09,13,39,26.20
2018,08,09,13,40,26.20
2018,08,09,13,41,26.30
2018,08,09,13,42,26.30
2018,08,09,13,43,26.30
2018,08,09,13,44,26.40
2018,08,09,13,45,26.40
2018,08,09,13,46,26.40
2018,08,09,13,47,26.40
2018,08,09,13,48,26.40
2018,08,09,13,49,26.40
2018,08,09,13,50,26.40
2018,08,09,13,51,26.40
2018,08,09,13,52,26.30
2018,08,09,13,53,26.30
2018,08,09,13,54,26.30
2018,08,09,13,55,26.30
2018,08,09,13,56,26.20
2018,08,09,13,57,26.10
2018,08,09,13,58,26.10
2018,08,09,13,59,26.00
2018,08,09,14,00,25.90
2018,08,09,14,01,25.90
2018,08,09,14,02,25.90
2018,08,09,14,03,25.80
2018,08,09,14,04,25.80
2018,08,09,14,05,25.80
2018,08,09,14,06,25.90
2018,08,09,14,07,25.90
2018,08,09,14,08,25.90
2018,08,09,14,09,25.90
2018,08,09,14,10,26.00
2018,08,09,14,11,26.10
2018,08,09,14,12,26.20
2018,08,09,14,13,26.30
2018,08,09,14,14,26.40
2018,08,09,14,15,26.50
2018,08,09,14,16,26.60
2018,08,09,14,17,26.70
2018,08,09,14,18,26.80
2018,08,09,14,19,27.00
2018,08,09,14,20,27.20
2018,08,09,14,21,27.30
2018,08,09,14,22,27.50
2018,08,09,14,23,27.70
2018,08,09,14,24,27.90
2018,08,09,14,25,28.00
2018,08,09,14,26,28.10
2018,08,09,14,27,28.20
2018,08,09,14,28,28.30
2018,08,09,14,29,28.30
2018,08,09,14,30,28.30
2018,08,09,14,31,28.30
2018,08,09,14,32,28.20
2018,08,09,14,33,28.20
2018,08,09,14,34,28.20
2018,08,09,14,35,28.10
2018,08,09,14,36,28.10
2018,08,09,14,37,28.10
2018,08,09,14,38,28.00
2018,08,09,14,39,27.90
2018,08,09,14,40,27.90
2018,08,09,14,41,27.90
2018,08,09,14,42,27.90
2018,08,09,14,43,28.00
2018,08,09,14,44,28.00
2018,08,09,14,45,28.00
2018,08,09,14,46,28.10
2018,08,09,14,47,28.10
2018,08,09,14,48,28.10
2018,08,09,14,49,28.20
2018,08,09,14,50,28.20
2018,08,09,14,51,28.20
2018,08,09,14,52,28.20
2018,08,09,14,53,28.20
2018,08,09,14,54,28.10
2018,08,09,14,55,28.10
2018,08,09,14,56,28.20
2018,08,09,14,57,28.20
2018,08,09,14,58,28.20
2018,08,09,14,59,28.30
2018,08,09,15,00,28.40
2018,08,09,15,01,28.60
2018,08,09,15,02,28.70
2018,08,09,15,03,28.90
2018,08,09,15,04,29.00
2018,08,09,15,05,29.20
2018,08,09,15,06,29.30
2018,08,09,15,07,29.50
2018,08,09,15,08,29.60
2018,08,09,15,09,29.60
2018,08,09,15,10,29.70
2018,08,09,15,11,29.70
2018,08,09,15,12,29.80
2018,08,09,15,13,29.90
2018,08,09,15,14,30.00
2018,08,09,15,15,30.10
2018,08,09,15,16,30.20
2018,08,09,15,17,30.30
2018,08,09,15,18,30.40
2018,08,09,15,19,30.50
2018,08,09,15,20,30.60
2018,08,09,15,21,30.60
2018,08,09,15,22,30.60
2018,08,09,15,23,30.70
2018,08,09,15,24,30.70
2018,08,09,15,25,30.80
2018,08,09,15,26,30.80
2018,08,09,15,27,30.80
2018,08,09,15,28,30.90
2018,08,09,15,29,30.90
2018,08,09,15,30,30.80
2018,08,09,15,31,30.80
2018,08,09,15,32,30.80
2018,08,09,15,33,30.80
2018,08,09,15,34,30.70
2018,08,09,15,35,30.70
2018,08,09,15,36,30.70
2018,08,09,15,37,30.80
2018,08,09,15,38,30.80
2018,08,09,15,39,30.90
2018,08,09,15,40,30.90
2018,08,09,15,41,31.00
2018,08,09,15,42,31.00
2018,08,09,15,43,31.10
2018,08,09,15,44,31.20
2018,08,09,15,45,31.30
2018,08,09,15,46,31.40
2018,08,09,15,47,31.50
2018,08,09,15,48,31.60
2018,08,09,15,49,31.70
2018,08,09,15,50,31.90
2018,08,09,15,51,32.00
2018,08,09,15,52,32.20
2018,08,09,15,53,32.20
2018,08,09,15,54,32.30
2018,08,09,15,55,32.30
2018,08,09,15,56,32.40
2018,08,09,15,57,32.50
2018,08,09,15,58,32.50
2018,08,09,15,59,32.60
2018,08,09,16,00,32.60
2018,08,09,16,01,32.60
2018,08,09,16,02,32.70
2018,08,09,16,03,32.70
2018,08,09,16,04,32.80
2018,08,09,16,05,32.80
2018,08,09,16,06,32.90
2018,08,09,16,07,33.00
2018,08,09,16,08,33.00
2018,08,09,16,09,33.10
2018,08,09,16,10,33.20
2018,08,09,16,11,33.20
2018,08,09,16,12,33.30
2018,08,09,16,13,33.30
2018,08,09,16,14,33.30
2018,08,09,16,15,33.40
2018,08,09,16,16,33.40
2018,08,09,16,17,33.50
2018,08,09,16,18,33.60
2018,08,09,16,19,33.70
2018,08,09,16,20,33.70
2018,08,09,16,21,33.80
2018,08,09,16,22,33.80
2018,08,09,16,23,33.70
2018,08,09,16,24,33.70
2018,08,09,16,25,33.60
2018,08,09,16,26,33.50
2018,08,09,16,27,33.60
2018,08,09,16,28,33.60
2018,08,09,16,29,33.60
2018,08,09,16,30,33.70
2018,08,09,16,31,33.70
2018,08,09,16,32,33.80
2018,08,09,16,33,33.80
2018,08,09,16,34,33.80
2018,08,09,16,35,33.80
2018,08,09,16,36,33.70
2018,08,09,16,37,33.70
2018,08,09,16,38,33.70
2018,08,09,16,39,33.70
2018,08,09,16,40,33.70
2018,08,09,16,41,33.70
2018,08,09,16,42,33.70
2018,08,09,16,43,33.60
2018,08,09,16,44,33.60
2018,08,09,16,45,33.60
2018,08,09,16,46,33.50
2018,08,09,16,47,33.40
2018,08,09,16,48,33.30
2018,08,09,16,49,33.30
2018,08,09,16,50,33.30
2018,08,09,16,51,33.30
2018,08,09,16,52,33.30
2018,08,09,16,53,33.30
2018,08,09,16,54,33.30
2018,08,09,16,55,33.40
2018,08,09,16,56,33.40
2018,08,09,16,57,33.40
2018,08,09,16,58,33.40
2018,08,09,16,59,33.30
2018,08,09,17,00,33.20
2018,08,09,17,01,33.20
2018,08,09,17,02,33.20
2018,08,09,17,03,33.10
2018,08,09,17,04,33.10
2018,08,09,17,05,33.10
2018,08,09,17,06,33.10
2018,08,09,17,07,33.10
2018,08,09,17,08,33.00
2018,08,09,17,09,33.00
2018,08,09,17,10,33.00
2018,08,09,17,11,33.00
2018,08,09,17,12,33.10
2018,08,09,17,13,33.10
2018,08,09,17,14,33.10
2018,08,09,17,15,33.20
2018,08,09,17,16,33.20
2018,08,09,17,17,33.30
2018,08,09,17,18,33.30
2018,08,09,17,19,33.30
2018,08,09,17,20,33.30
2018,08,09,17,21,33.30